Location: Vale
(35.4830°N, 81.3830°W)
Time: 19:54:11
(UTC-04:00)

Amateur Radio Satellites - All Passes

Search period start: 24 April 2014 19:24
Search period end: 25 April 2014 19:24
Location: Vale, 35.4830°N, 81.3830°W

Satellite Date Start Highest point End Downlink Frequencies (MHz)
Time Altitude Azimuth
SO-67 24 Apr 19:24:05 19:26:58 24° 72° (ENE) 19:29:51 435.3500 MHz FM
ISS 24 Apr 19:52:10 19:54:38 19° 30° (NNE) 19:57:06 145.800 FM
Hamsat 24 Apr 20:13:41 20:15:19 12° 268° (W) 20:16:57 145.90 MHz
STRAND 1 24 Apr 20:14:46 20:19:53 87° 284° (WNW) 20:24:59 ?
Saudisat 1A 24 Apr 20:26:02 20:29:44 27° 248° (WSW) 20:33:25 436.775 MHz
MaSat-1 24 Apr 20:54:00 20:56:56 85° 299° (WNW) 20:59:31 437.345 MHz
SO-67 24 Apr 20:58:07 21:00:06 14° 266° (W) 21:02:05 435.3500 MHz FM
JAS-2 24 Apr 21:06:35 21:10:14 17° 265° (W) 21:13:43 435.800 - 435.900 CW/SSB, 435.910 FM
HO-68 24 Apr 21:27:19 21:34:19 62° 70° (ENE) 21:41:20 435.675 MHz FM
ISS 24 Apr 21:28:16 21:31:32 48° 226° (SW) 21:34:48 145.800 FM
Oscar 11 24 Apr 22:05:07 22:09:10 42° 73° (ENE) 22:13:16 145.825 FM, Beacon 2401.500 USB
FUNcube-1 24 Apr 22:14:11 22:16:38 15° 68° (ENE) 22:19:04 145.950 - 145.970 MHz USB
PCSat 24 Apr 22:35:57 22:38:46 14° 103° (ESE) 22:41:35 145.825 MHz
SO-50 24 Apr 22:38:27 22:40:58 14° 46° (NE) 22:43:30 436.795 FM
HO-68 24 Apr 23:17:14 23:22:23 21° 266° (W) 23:27:35 435.675 MHz FM
Sapphire 24 Apr 23:32:07 23:37:17 48° 111° (ESE) 23:42:28 437.095 MHz 1200 baud AX-25 AFSK
Oscar 11 24 Apr 23:43:24 23:45:33 14° 267° (W) 23:47:42 145.825 FM, Beacon 2401.500 USB
FUNcube-1 24 Apr 23:48:53 23:52:44 36° 262° (W) 23:56:35 145.950 - 145.970 MHz USB
PCSat 25 Apr 00:16:14 00:21:34 63° 298° (WNW) 00:26:57 145.825 MHz
SO-50 25 Apr 00:17:20 00:21:59 69° 243° (WSW) 00:26:41 436.795 FM
UOSAT-12 25 Apr 00:29:32 00:30:47 11° 43° (NE) 00:32:02 437.025 FM, 437.400 FM
Sapphire 25 Apr 01:16:47 01:20:56 22° 308° (NW) 01:25:06 437.095 MHz 1200 baud AX-25 AFSK
Oscar 16 25 Apr 01:40:16 01:41:36 11° 91° (E) 01:42:55 437.025 USB, Beacon 2401.1428
KITSAT 1 25 Apr 01:46:45 01:54:26 49° 110° (ESE) 02:02:09 435.175 FM
UOSAT-12 25 Apr 02:06:55 02:11:39 85° 61° (ENE) 02:16:20 437.025 FM, 437.400 FM
Uribyol 2 25 Apr 02:24:45 02:27:56 16° 93° (E) 02:31:07 436.500 FM
OPAL 25 Apr 03:00:51 03:05:43 51° 71° (ENE) 03:10:41 ?
AO-27 25 Apr 03:06:44 03:11:39 42° 99° (E) 03:16:32 436.795 MHz FM
Oscar 19 25 Apr 03:06:48 03:12:02 85° 103° (ESE) 03:17:14 437.125 CW, 437.150 USB
ITAMSAT 1 25 Apr 03:15:44 03:20:47 51° 100° (E) 03:25:48 435.822 SSB
Oscar 16 25 Apr 03:16:13 03:21:25 73° 285° (WNW) 03:26:34 437.025 USB, Beacon 2401.1428
Gurwin Techsat 1B 25 Apr 03:33:41 03:37:52 23° 95° (E) 03:42:01 435.225 FM
KITSAT 1 25 Apr 03:42:41 03:49:59 36° 308° (NW) 03:57:20 435.175 FM
AO-Echo 25 Apr 04:00:35 04:05:16 65° 285° (WNW) 04:09:53 ?
Uribyol 2 25 Apr 04:02:39 04:07:39 51° 287° (WNW) 04:12:39 436.500 FM
TMSAT-1 25 Apr 04:17:17 04:22:20 44° 99° (E) 04:27:21 436.925 FM
Uosat F 25 Apr 04:25:39 04:28:47 17° 94° (E) 04:31:53 435.120 FM
JAS-1B 25 Apr 04:39:53 04:45:08 36° 99° (E) 04:50:52 435.800 - 435.900 CW/SSB
OPAL 25 Apr 04:41:53 04:44:52 16° 265° (W) 04:47:53 ?
RS-15 25 Apr 04:45:55 04:53:32 21° 101° (ESE) 05:00:57 29.354 - 29.394 USB, Beacon 29.352 USB
AO-27 25 Apr 04:47:06 04:50:50 20° 294° (WNW) 04:54:33 436.795 MHz FM
Oscar 19 25 Apr 04:49:42 04:50:36 10° 299° (WNW) 04:51:30 437.125 CW, 437.150 USB
ITAMSAT 1 25 Apr 04:56:33 04:59:49 17° 295° (WNW) 05:03:05 435.822 SSB
Gurwin Techsat 1B 25 Apr 05:13:02 05:17:53 37° 290° (WNW) 05:22:42 435.225 FM
AO-7 25 Apr 05:32:50 05:40:54 51° 102° (ESE) 05:48:56 29.400 - 29.500 MHz
STRAND 1 25 Apr 05:53:21 05:54:19 11° 62° (ENE) 05:55:18 ?
TMSAT-1 25 Apr 05:58:06 06:01:53 20° 294° (WNW) 06:05:40 436.925 FM
Uosat F 25 Apr 06:02:59 06:07:46 47° 288° (WNW) 06:12:32 435.120 FM
PANSAT 25 Apr 06:10:02 06:12:43 18° 165° (SSE) 06:15:24 not established
Hamsat 25 Apr 06:26:35 06:27:38 11° 91° (E) 06:28:41 145.90 MHz
JAS-1B 25 Apr 06:31:03 06:35:42 26° 292° (WNW) 06:40:39 435.800 - 435.900 CW/SSB
AO-40 25 Apr 06:43:40 09:52:25 26° 129° (SE) 11:16:12 Beacon 2401.320
RS-15 25 Apr 06:53:05 07:04:32 85° 299° (WNW) 07:15:35 29.354 - 29.394 USB, Beacon 29.352 USB
MaSat-1 25 Apr 06:56:55 07:00:10 57° 248° (WSW) 07:04:05 437.345 MHz
AO-7 25 Apr 07:26:10 07:33:18 33° 299° (WNW) 07:40:26 29.400 - 29.500 MHz
STRAND 1 25 Apr 07:27:40 07:32:47 82° 257° (WSW) 07:37:54 ?
PANSAT 25 Apr 07:49:05 07:52:27 28° 177° (S) 07:55:49 not established
Hamsat 25 Apr 07:59:37 08:03:53 54° 285° (WNW) 08:08:09 145.90 MHz
JAS-2 25 Apr 08:14:46 08:20:24 59° 101° (ESE) 08:26:43 435.800 - 435.900 CW/SSB, 435.910 FM
Sapphire 25 Apr 08:23:42 08:27:51 22° 52° (NE) 08:31:58 437.095 MHz 1200 baud AX-25 AFSK
SO-67 25 Apr 08:23:56 08:27:19 46° 99° (E) 08:30:40 435.3500 MHz FM
Saudisat 1A 25 Apr 08:52:06 08:54:16 14° 108° (ESE) 08:56:27 436.775 MHz
HO-68 25 Apr 09:02:00 09:04:20 12° 90° (E) 09:06:40 435.675 MHz FM
PCSat 25 Apr 09:07:12 09:12:32 54° 60° (ENE) 09:17:48 145.825 MHz
RS-15 25 Apr 09:09:59 09:18:37 25° 323° (NW) 09:27:10 29.354 - 29.394 USB, Beacon 29.352 USB
PANSAT 25 Apr 09:29:06 09:32:15 23° 190° (S) 09:35:23 not established
KITSAT 1 25 Apr 09:44:32 09:49:15 16° 38° (NE) 09:53:55 435.175 FM
JAS-2 25 Apr 10:01:26 10:05:08 18° 294° (WNW) 10:09:05 435.800 - 435.900 CW/SSB, 435.910 FM
Sapphire 25 Apr 10:06:19 10:11:30 48° 249° (WSW) 10:16:40 437.095 MHz 1200 baud AX-25 AFSK
Saudisat 1A 25 Apr 10:29:04 10:33:24 52° 303° (WNW) 10:37:47 436.775 MHz
Oscar 10/S400 25 Apr 10:39:23 12:22:04 59° 237° (WSW) 19:22:09 145.825 - 145.975 CW/USB, Beacon 145.810 USB
HO-68 25 Apr 10:45:38 10:52:52 85° 105° (ESE) 11:00:03 435.675 MHz FM
PCSat 25 Apr 10:52:00 10:55:26 17° 255° (WSW) 10:58:53 145.825 MHz
PANSAT 25 Apr 11:11:04 11:11:52 11° 202° (SSW) 11:12:40 not established
Oscar 11 25 Apr 11:31:38 11:35:56 59° 285° (WNW) 11:40:13 145.825 FM, Beacon 2401.500 USB
RS-15 25 Apr 11:33:34 11:37:00 12° 360° (N) 11:40:27 29.354 - 29.394 USB, Beacon 29.352 USB
KITSAT 1 25 Apr 11:38:07 11:46:13 70° 60° (ENE) 11:54:13 435.175 FM
FUNcube-1 25 Apr 11:40:30 11:44:44 50° 100° (E) 11:49:02 145.950 - 145.970 MHz USB
ISS 25 Apr 12:32:26 12:35:05 23° 130° (SE) 12:37:45 145.800 FM
HO-68 25 Apr 12:35:24 12:39:38 17° 302° (WNW) 12:43:53 435.675 MHz FM
Oscar 16 25 Apr 12:54:14 12:56:32 13° 63° (ENE) 12:58:50 437.025 USB, Beacon 2401.1428
FUNcube-1 25 Apr 13:18:47 13:20:43 13° 293° (WNW) 13:22:40 145.950 - 145.970 MHz USB
AO-Echo 25 Apr 13:35:01 13:37:01 12° 64° (ENE) 13:39:00 ?
KITSAT 1 25 Apr 13:35:02 13:40:49 22° 257° (WSW) 13:46:35 435.175 FM
Uribyol 2 25 Apr 13:39:57 13:43:30 19° 66° (ENE) 13:47:04 436.500 FM
RS-15 25 Apr 13:46:59 13:55:26 24° 36° (NE) 14:03:57 29.354 - 29.394 USB, Beacon 29.352 USB
ISS 25 Apr 14:08:43 14:11:41 30° 325° (NW) 14:14:40 145.800 FM
Oscar 19 25 Apr 14:20:37 14:25:46 89° 76° (ENE) 14:30:58 437.125 CW, 437.150 USB
AO-27 25 Apr 14:21:57 14:26:54 48° 72° (ENE) 14:31:52 436.795 MHz FM
SO-50 25 Apr 14:29:27 14:33:55 82° 118° (ESE) 14:38:26 436.795 FM
Oscar 16 25 Apr 14:30:09 14:35:15 68° 258° (WSW) 14:40:25 437.025 USB, Beacon 2401.1428
ITAMSAT 1 25 Apr 14:30:46 14:35:50 58° 73° (ENE) 14:40:54 435.822 SSB
Gurwin Techsat 1B 25 Apr 14:51:54 14:56:21 28° 68° (ENE) 15:00:48 435.225 FM
AO-Echo 25 Apr 15:10:00 15:15:11 72° 258° (WSW) 15:20:16 ?
OPAL 25 Apr 15:14:54 15:18:25 18° 96° (E) 15:21:53 ?
Uribyol 2 25 Apr 15:17:42 15:22:37 45° 260° (W) 15:27:33 436.500 FM
JAS-1B 25 Apr 15:22:17 15:28:27 28° 68° (ENE) 15:33:50 435.800 - 435.900 CW/SSB
TMSAT-1 25 Apr 15:35:03 15:40:09 51° 73° (ENE) 15:45:16 436.925 FM
Uosat F 25 Apr 15:36:23 15:39:40 18° 65° (ENE) 15:42:58 435.120 FM
RS-15 25 Apr 15:58:33 16:09:35 84° 61° (ENE) 16:20:57 29.354 - 29.394 USB, Beacon 29.352 USB
AO-27 25 Apr 16:03:17 16:06:37 17° 266° (W) 16:09:58 436.795 MHz FM
ITAMSAT 1 25 Apr 16:13:00 16:15:39 14° 268° (W) 16:18:19 435.822 SSB
SO-50 25 Apr 16:13:33 16:15:04 11° 316° (NW) 16:16:35 436.795 FM
UOSAT-12 25 Apr 16:15:16 16:19:38 51° 115° (ESE) 16:24:08 437.025 FM, 437.400 FM
AO-7 25 Apr 16:28:25 16:36:20 53° 67° (ENE) 16:44:17 29.400 - 29.500 MHz
Gurwin Techsat 1B 25 Apr 16:31:30 16:36:10 31° 263° (W) 16:40:52 435.225 FM
OPAL 25 Apr 16:52:28 16:57:29 48° 290° (WNW) 17:02:26 ?
JAS-1B 25 Apr 17:11:16 17:18:51 48° 259° (W) 17:25:17 435.800 - 435.900 CW/SSB
Uosat F 25 Apr 17:13:15 17:18:04 46° 260° (W) 17:22:54 435.120 FM
TMSAT-1 25 Apr 17:17:03 17:20:19 17° 267° (W) 17:23:36 436.925 FM
UOSAT-12 25 Apr 17:57:03 18:00:06 17° 312° (NW) 18:03:11 437.025 FM, 437.400 FM
RS-15 25 Apr 18:13:06 18:20:36 21° 258° (WSW) 18:28:18 29.354 - 29.394 USB, Beacon 29.352 USB
AO-7 25 Apr 18:22:20 18:29:20 30° 263° (W) 18:36:22 29.400 - 29.500 MHz
JAS-2 25 Apr 18:27:15 18:30:18 15° 65° (ENE) 18:33:16 435.800 - 435.900 CW/SSB, 435.910 FM
Hamsat 25 Apr 18:49:50 18:54:01 71° 76° (ENE) 18:58:16 145.90 MHz
SO-67 25 Apr 18:57:23 18:58:07 11° 68° (ENE) 18:58:50 435.3500 MHz FM
Saudisat 1A 25 Apr 18:58:44 19:03:02 50° 57° (ENE) 19:07:16 436.775 MHz
ISS 25 Apr 19:04:02 19:05:39 13° 25° (NNE) 19:07:16 145.800 FM
